Guymon, OK

2:50 PM CDT on September 22, 2017 (GMT -0500)
Guymon Municipal

Weather History for KGUY - August, 2013

Change the Weather History Date:

Thursday, August 1, 2013

  Actual Average Record
Temperature  
Mean Temperature 81 °F 80 °F  
Max Temperature 97 °F 93 °F 106 °F (2012)
Min Temperature 65 °F 66 °F 57 °F (2000)
Degree Days  
Heating Degree Days 0 0  
Month to date heating degree days 0 0  
Since 1 June heating degree days 0 8  
Since 1 July heating degree days 0 0  
Cooling Degree Days 16 15  
Month to date cooling degree days 16 15  
Year to date cooling degree days 1129 857  
Since 1 June cooling degree days 925 749  
Growing Degree Days 32 (Base 50)    
Moisture  
Dew Point 63 °F    
Average Humidity 59    
Maximum Humidity 87    
Minimum Humidity 30    
Precipitation  
Precipitation 0.00 in 0.07 in 0.29 in (2015)
Month to date precipitation 0.00 0.07  
Year to date precipitation 6.35 11.92  
Snow  
Snow 0.00 in - - ()
Month to date snowfall 0.0  
Since 1 June snowfall T  
Since 1 July snowfall 0.0  
Snow Depth 0.00 in    
Sea Level Pressure  
Sea Level Pressure 29.96 in    
Wind  
Wind Speed 13 mph (SSW)    
Max Wind Speed 26 mph    
Max Gust Speed 35 mph    
Visibility 10 miles    
Events Thunderstorm    
T = Trace of Precipitation, MM = Missing Value Source: NWS Daily Summary

Daily Weather History Graph

Daily Weather History Graph

Search for Another Location

Airport or City:

Trip Planner

Search our weather history database for the weather conditions in past years. The results will help you decide how hot, cold, wet, or windy it might be!

Date:

Astronomy

Aug. 01, 2013 Rise Set
Actual Time 6:52 AM CDT 8:52 PM CDT
Civil Twilight 6:23 AM CDT 9:20 PM CDT
Nautical Twilight 5:48 AM CDT 9:55 PM CDT
Astronomical Twilight 5:11 AM CDT 10:32 PM CDT
Moon 2:30 AM CDT (8/1) 5:01 PM CDT (8/1)
Length of Visible Light 14h 56m
Length of Day
13h 59m
Waning Crescent, 23% of the Moon is Illuminated
Aug 1
Waning Crescent
Aug 6
New
Aug 14
First Quarter
Aug 20
Full
Aug 28
Last Quarter

Hourly Weather History & Observations

Time (CDT) Temp. Heat Index Dew Point Humidity Pressure Visibility Wind Dir Wind Speed Gust Speed Precip Events Conditions
12:53 AM 71.1 °F - 61.0 °F 70% 30.05 in 10.0 mi SW 8.1 mph - N/A   Clear
1:53 AM 72.0 °F - 63.0 °F 73% 30.01 in 10.0 mi WSW 12.7 mph - N/A   Clear
2:53 AM 71.1 °F - 63.0 °F 75% 30.00 in 10.0 mi SW 6.9 mph - N/A   Clear
3:53 AM 71.1 °F - 63.0 °F 75% 30.01 in 10.0 mi South 3.5 mph - N/A   Clear
4:53 AM 68.0 °F - 63.0 °F 84% 30.04 in 10.0 mi Calm Calm - N/A   Clear
5:53 AM 66.9 °F - 62.1 °F 84% 30.06 in 10.0 mi North 4.6 mph - N/A   Partly Cloudy
6:53 AM 66.0 °F - 62.1 °F 87% 30.06 in 10.0 mi South 3.5 mph - N/A   Clear
7:53 AM 71.1 °F - 64.9 °F 81% 30.06 in 10.0 mi Calm Calm - N/A   Clear
8:53 AM 75.0 °F - 66.0 °F 73% 30.06 in 10.0 mi Calm Calm - N/A   Scattered Clouds
9:53 AM 78.1 °F - 66.9 °F 68% 30.04 in 10.0 mi South 13.8 mph - N/A   Clear
10:53 AM 84.0 °F 86.5 °F 66.9 °F 56% 30.01 in 10.0 mi South 16.1 mph - N/A   Clear
11:53 AM 87.1 °F 89.2 °F 66.0 °F 49% 29.99 in 10.0 mi South 18.4 mph 25.3 mph N/A   Clear
12:53 PM 89.1 °F 91.3 °F 66.0 °F 46% 29.96 in 10.0 mi South 17.3 mph 26.5 mph N/A   Partly Cloudy
1:53 PM 91.9 °F 92.9 °F 63.0 °F 38% 29.92 in 10.0 mi South 18.4 mph 26.5 mph N/A   Clear
2:53 PM 93.9 °F 95.2 °F 63.0 °F 36% 29.88 in 10.0 mi SSW 21.9 mph 27.6 mph N/A   Clear
3:53 PM 96.1 °F 96.4 °F 61.0 °F 31% 29.86 in 10.0 mi South 17.3 mph 29.9 mph N/A   Clear
4:53 PM 97.0 °F 97.4 °F 61.0 °F 30% 29.83 in 10.0 mi SSW 20.7 mph 28.8 mph N/A   Clear
5:53 PM 96.1 °F 96.0 °F 60.1 °F 30% 29.81 in 10.0 mi SSW 21.9 mph 28.8 mph N/A   Partly Cloudy
6:53 PM 91.0 °F 93.0 °F 64.9 °F 42% 29.83 in 10.0 mi South 23.0 mph 31.1 mph N/A   Partly Cloudy
7:53 PM 89.1 °F 90.0 °F 63.0 °F 42% 29.81 in 10.0 mi South 18.4 mph 27.6 mph N/A   Clear
8:53 PM 86.0 °F 85.4 °F 59.0 °F 40% 29.80 in 10.0 mi South 18.4 mph 29.9 mph N/A   Clear
9:53 PM 84.0 °F 84.4 °F 61.0 °F 46% 29.83 in 10.0 mi South 17.3 mph 26.5 mph N/A   Clear
10:39 PM 80.6 °F 81.8 °F 62.6 °F 54% 30.05 in 10.0 mi WNW 10.4 mph 19.6 mph N/A   Mostly Cloudy
10:53 PM 78.1 °F - 63.0 °F 60% 29.90 in 10.0 mi NW 11.5 mph - N/A   Mostly Cloudy
11:03 PM 78.8 °F - 62.6 °F 57% 30.06 in 10.0 mi WNW 9.2 mph - N/A Thunderstorm Mostly Cloudy
11:18 PM 77.0 °F - 62.6 °F 61% 30.06 in 10.0 mi NNW 5.8 mph - N/A   Mostly Cloudy
11:53 PM 78.1 °F - 63.0 °F 60% 29.87 in 10.0 mi East 5.8 mph - N/A   Mostly Cloudy